Weather History for Baker Lake, NU

Change the Weather History Date:

Wednesday, January 9, 2013

  Actual Average Record
Temperature  
Mean Temperature -38 °F -  
Max Temperature -35 °F -21 °F 5 °F (2011)
Min Temperature -42 °F -33 °F -42 °F (2013)
Degree Days  
Heating Degree Days 104    
Moisture  
Dew Point -46 °F    
Average Humidity 66    
Maximum Humidity 74    
Minimum Humidity 49    
Precipitation  
Precipitation 0.00 in 0.01 in - ()
Sea Level Pressure  
Sea Level Pressure 29.90 in    
Wind  
Wind Speed 5 mph ()    
Max Wind Speed 20 mph    
Max Gust Speed 25 mph    
Visibility 16.1 miles    
Events Snow    
Averages and records for this station are not official NWS values.
T = Trace of Precipitation, MM = Missing Value Source: Averaged Metar Reports

Daily Weather History Graph

Daily Weather History Graph

Search for Another Location

Airport:

Trip Planner

Search our weather history database for the weather conditions in past years. The results will help you decide how hot, cold, wet, or windy it might be!

Date:

Astronomy

Jan. 09, 2013 Rise Set
Actual Time 10:05 AM CST 2:58 PM CST
Civil Twilight 8:53 AM CST 4:10 PM CST
Nautical Twilight 7:46 AM CST 5:16 PM CST
Astronomical Twilight 6:48 AM CST 6:15 PM CST
Moon 7:48 AM CST (1/9) 12:58 PM CST (1/9)
Length of Visible Light 7h 16m
Length of Day
4h 52m
Waning Crescent, 6% of the Moon is Illuminated
Jan 9
Waning Crescent
Jan 11
New
Jan 18
First Quarter
Jan 26
Full
Feb 3
Last Quarter

Hourly Weather History & Observations

Time (CST) Temp. Windchill Dew Point Humidity Pressure Visibility Wind Dir Wind Speed Gust Speed Precip Events Conditions
12:00 AM -38.2 °F -51.5 °F -45.4 °F 67% 29.82 in 15.0 mi SW 3.5 mph - N/A   Partly Cloudy
1:00 AM -40.0 °F -53.5 °F -45.4 °F 74% 29.83 in 15.0 mi SW 3.5 mph - N/A   Clear
2:00 AM -41.8 °F -58.7 °F -47.2 °F 74% 29.84 in 15.0 mi SW 4.6 mph - N/A   Clear
3:00 AM -40.0 °F -56.6 °F -47.2 °F 67% 29.84 in 15.0 mi West 4.6 mph - N/A   Clear
4:00 AM -40.0 °F -56.6 °F -45.4 °F 74% 29.85 in 15.0 mi WNW 4.6 mph - N/A   Clear
5:00 AM -38.2 °F - -45.4 °F 67% 29.86 in 15.0 mi West 2.3 mph - N/A   Clear
6:00 AM -38 °F - -45 °F 49% 29.88 in 15 mi West 4.6 mph - -  
6:00 AM -38.2 °F -54.5 °F -45.4 °F 67% 29.88 in 15.0 mi West 4.6 mph - N/A   Clear
7:00 AM -38.2 °F -51.5 °F -45.4 °F 67% 29.88 in 15.0 mi NW 3.5 mph - N/A   Clear
7:29 AM - - - N/A% - 10.0 mi WNW 17.3 mph 23.0 mph N/A   Unknown
8:00 AM -36.4 °F -69.4 °F -43.6 °F 67% 29.86 in 15.0 mi WNW 19.6 mph 25.3 mph N/A Snow Low Drifting Snow
9:00 AM -36.4 °F -56.8 °F -43.6 °F 67% 29.87 in 15.0 mi North 6.9 mph - N/A   Partly Cloudy
10:00 AM -36.4 °F -68.6 °F -45.4 °F 61% 29.87 in 20.0 mi WNW 18.4 mph - N/A   Partly Cloudy
12:00 PM -38 °F - -45 °F 49% 29.89 in 19 mi SW 9.2 mph - -  
12:00 PM -38.2 °F -62.3 °F -45.4 °F 67% 29.89 in 20.0 mi SW 9.2 mph - N/A   Clear
1:00 PM -40.0 °F -64.5 °F -47.2 °F 67% 29.89 in 20.0 mi WSW 9.2 mph - N/A   Clear
2:00 PM -40.0 °F -61.1 °F -45.4 °F 74% 29.91 in 20.0 mi West 6.9 mph - N/A   Clear
3:00 PM -41.8 °F -55.6 °F -47.2 °F 74% 29.93 in 20.0 mi WNW 3.5 mph - N/A   Clear
4:00 PM -40.0 °F -53.5 °F -45.4 °F 74% 29.94 in 20.0 mi SSW 3.5 mph - N/A   Partly Cloudy
5:00 PM -38.2 °F -51.5 °F -47.2 °F 61% 29.95 in 15.0 mi West 3.5 mph - N/A   Partly Cloudy
6:00 PM -42 °F - -47 °F 58% 29.96 in 15 mi WNW 2.3 mph - -   Scattered Clouds
6:00 PM -41.8 °F - -47.2 °F 74% 29.96 in 15.0 mi WNW 2.3 mph - N/A   Partly Cloudy
7:00 PM -36.4 °F - -45.4 °F 61% 29.96 in 15.0 mi WSW 1.2 mph - N/A   Partly Cloudy
9:00 PM -38.2 °F -51.5 °F -45.4 °F 67% 29.97 in 15.0 mi NNE 3.5 mph - N/A   Partly Cloudy
10:00 PM -38.2 °F -51.5 °F -45.4 °F 67% 29.98 in 15.0 mi WSW 3.5 mph - N/A   Partly Cloudy
11:00 PM -38.2 °F - -45.4 °F 67% 29.99 in 15.0 mi West 2.3 mph - N/A   Partly Cloudy